Regional Weather Roundup
Issued by NWS

Home | Current Version | Previous Version | Text Only | Print | Product List | Glossary On
Versions: 1 2 3 4 5 6 7 8 9 10 11 12 13 14 15 16 17 18 19 20 21 22 23 24 25 26 27 28 29 30 31 32 33 34 35 36 37 38 39 40 41 42 43 44 45 46 47 48 49 50
000
ASUS43 KDMX 181706
RWRIA

WEATHER ROUNDUP FOR IOWA
NATIONAL WEATHER SERVICE DES MOINES IA
1200 PM CDT WED OCT 18 2017

NOTE: "FAIR" INDICATES FEW OR NO CLOUDS BELOW 12,000 FEET WITH NO
SIGNIFICANT WEATHER AND/OR OBSTRUCTIONS TO VISIBILITY.

* - THESE STATIONS ARE NOT NWS STATIONS...THUS NOT UNDER NWS
QUALITY CONTROL.  THEY ALSO DO NOT REPORT WEATHER SUCH
AS PRECIPITATION OR FOG.

IAZ001>003-012>014-020>022-031>034-043>046-181800-
   NORTHWEST IOWA

CITY           SKY/WX    TMP DP  RH WIND       PRES   REMARKS
CARROLL *      MOSUNNY   72  54  53 S15G23    29.90S
CHEROKEE *     MOSUNNY   65  50  57 SW8       29.89R
DENISON *      MOSUNNY   64  46  52 SW8G21    29.91S
LE MARS *      SUNNY     68  43  40 VRB7G13   29.90R
ORANGE CITY *  SUNNY     66  46  48 W13       29.90R
SHELDON *      SUNNY     66  45  45 W10       29.89R
SIOUX CITY     SUNNY     67  47  48 W7        29.90R
SPENCER        PTSUNNY   67  46  47 W17       29.89R
STORM LAKE *   MOSUNNY   66  46  48 SW16      29.89R
$$

IAZ055>058-069>071-079>083-090>094-181800-
   SOUTHWEST IOWA

CITY           SKY/WX    TMP DP  RH WIND       PRES   REMARKS
ATLANTIC *     SUNNY     64  48  55 S14       29.93F
AUDUBON *      SUNNY     64  48  55 S13G21    29.93F
CLARINDA *     SUNNY     66  48  52 SW14      30.00R
COUNCIL BLFS * SUNNY     64  50  59 S15G22    29.92F
CRESTON *      SUNNY     66  48  52 SW18      29.99S
HARLAN  *      MOSUNNY   64  48  55 S15       29.95F
LAMONI         SUNNY     66  48  52 S16G25    30.01F
RED OAK *      SUNNY     66  48  52 S16       29.94F
SHENANDOAH *   SUNNY     68  48  49 S16       29.96F
$$

IAZ047>049-059>061-072>074-084-181800-
   CENTRAL IOWA

CITY           SKY/WX    TMP DP  RH WIND       PRES   REMARKS
AMES           SUNNY     68  50  52 S17G23    29.94F
ANKENY *       SUNNY     68  46  45 S16G22    29.97F
BOONE *        MOSUNNY   68  46  45 S13G20    29.93F
CHARITON *     SUNNY     66  46  48 S16       30.00S
DES MOINES     PTSUNNY   69  46  43 S14       29.96F
GRINNELL*      SUNNY     68  46  45 S14G21    30.01S
KNOXVILLE *    SUNNY     68  46  45 S15G22    29.99S
MARSHALLTOWN   SUNNY     67  47  48 S16       29.96F
NEWTON *       SUNNY     68  46  45 S16G22    29.99S
PELLA *        SUNNY     68  46  45 S15       30.01S
PERRY *          N/A     68  44  41 SW12      29.94S
$$

IAZ004>006-015-016-023>025-035-036-181800-
   NORTH CENTRAL IOWA

CITY           SKY/WX    TMP DP  RH WIND       PRES   REMARKS
ALGONA *       MOSUNNY   66  50  55 S15G24    29.88R
CLARION *      SUNNY     66  48  52 S17       29.90F
ESTHERVILLE    SUNNY     67  48  50 W18       29.89R
FORT DODGE *   MOSUNNY   66  49  54 S16       29.90F
MASON CITY     SUNNY     65  48  54 S14       29.91F
FOREST CITY *    N/A     64  48  55 S14       29.89S
WEBSTER CITY * CLOUDY    66  46  48 S15       29.90S
IOWA FALLS *     N/A     68  49  50 S15       29.95F
$$

IAZ007>011-017>019-026>030-037>042-050>054-066-181800-
   NORTHEAST IOWA

CITY           SKY/WX    TMP DP  RH WIND       PRES   REMARKS
CEDAR RAPIDS   SUNNY     67  47  48 S16       30.01F
CHARLES CITY * SUNNY     68  46  45 S13G20    29.93F
CLINTON *      SUNNY     68  48  48 S17       30.06F
DECORAH *      SUNNY     66  48  52 S8G21     29.93F
DUBUQUE        SUNNY     65  48  54 S18G24    30.02F
MONTICELLO *   SUNNY     68  46  45 S14G22    30.01F
OELWEIN *      SUNNY     68  48  49 S17       29.97S
WATERLOO       SUNNY     67  46  47 S17       29.95S
$$

IAZ064-065-067-068-078-181800-
   EAST CENTRAL IOWA

CITY           SKY/WX    TMP DP  RH WIND       PRES   REMARKS
DAVENPORT      SUNNY     67  46  47 S14G20    30.08F
IOWA CITY      SUNNY     68  46  45 S16       30.04F
MUSCATINE *    SUNNY     68  45  42 SW15G22   30.06S
QUAD CITIES    SUNNY     68  45  43 S16G24    30.06F
$$

IAZ062-063-075>077-085>089-095>099-181800-
   SOUTHEAST IOWA

CITY           SKY/WX    TMP DP  RH WIND       PRES   REMARKS
BURLINGTON     SUNNY     68  47  46 SW13G23   30.08F
FAIRFIELD *    SUNNY     66  45  45 S14G22    30.04F
FORT MADISON * SUNNY     66  46  48 SW12      30.09F
KEOKUK *       SUNNY     64  46  52 S12G18    30.08F
OSKALOOSA *      N/A     67  46  47 SW15      30.02F
WASHINGTON *   SUNNY     68  46  45 S17       30.05F
$$

ABBREVIATIONS USED IN REMARKS
   TC - TEMPERATURES IN CELSIUS
  WCI - WIND CHILL INDEX
   HX - HEAT INDEX
  VSB - VISIBILITY
$$





USA.gov is the U.S. government's official web portal to all federal, state and local government web resources and services.